FW8055 Weather Reports


time (UTC)temp
C
wind
direction
speed
KPH
gust
KPH
rain 1hr
cm
rain 24hr
cm
rain mn
cm
humidity
%
barometer
mb
20260903234556 14 0 0.0 3.2 0.00 0.58 0.20 86 1010.2
20260903233056 14 233 0.0 6.4 0.00 0.58 0.20 87 1010.5
20260903231603 13 0 0.0 4.8 0.00 0.58 0.20 88 1010.6
20260903230059 13 0 0.0 4.8 0.05 0.58 0.20 88 1010.7
20260903224612 13 0 0.0 3.2 0.15 0.71 0.20 88 1010.9
20260903223100 13 0 1.6 6.4 0.18 0.71 0.20 87 1011.2
20260903221556 13 0 0.0 11.3 0.18 0.71 0.20 84 1011.2
20260903220058 15 0 1.6 19.3 0.13 0.66 0.15 79 1011.2
20260903214609 18 0 0.0 3.2 0.03 0.61 0.05 65 1010.3
20260903213113 18 0 1.6 6.4 0.00 0.58 0.03 56 1009.8
20260903211608 20 0 0.0 9.7 0.00 0.58 0.03 55 1009.9
20260903210124 20 0 0.0 14.5 0.00 0.58 0.03 57 1009.8
20260903204557 20 0 0.0 8.0 0.00 0.61 0.03 56 1010.1
20260903203113 18 0 1.6 17.7 0.00 0.61 0.03 61 1010.3
20260903201558 18 32 1.6 16.1 0.00 0.61 0.03 59 1010.5
20260903200056 18 81 1.6 11.3 0.00 0.61 0.03 60 1010.6
20260903194602 18 0 1.6 11.3 0.00 0.64 0.03 65 1010.7
20260903193101 17 0 1.6 9.7 0.00 0.64 0.03 66 1010.9
20260903191554 16 219 1.6 14.5 0.00 0.64 0.03 68 1011.3
20260903190054 16 0 0.0 12.9 0.00 0.64 0.03 72 1011.4
20260903184553 16 0 0.0 4.8 0.00 0.69 0.03 75 1011.4
20260903183057 15 0 0.0 6.4 0.00 0.69 0.03 77 1011.4
20260903181552 15 0 0.0 8.0 0.00 0.69 0.03 80 1011.4
20260903180100 15 0 0.0 6.4 0.00 0.69 0.03 79 1011.4
20260903174558 15 0 0.0 8.0 0.00 1.04 0.03 82 1011.3
20260903173052 14 223 0.0 4.8 0.00 1.04 0.03 84 1011.3
20260903171551 14 0 0.0 6.4 0.00 1.04 0.03 83 1011.2
20260903170058 14 0 0.0 6.4 0.00 1.04 0.03 84 1011.2
20260903164618 13 0 0.0 4.8 0.00 1.14 0.03 86 1011.3
20260903163058 13 0 0.0 4.8 0.00 1.14 0.03 88 1011.3
20260903161600 13 0 0.0 3.2 0.00 1.14 0.03 89 1011.5
20260903160121 13 237 0.0 9.7 0.00 1.14 0.03 89 1011.5
20260903154607 12 0 0.0 4.8 0.00 1.19 0.03 90 1011.6
20260903153055 12 0 0.0 4.8 0.00 1.19 0.03 91 1011.7
20260903151554 12 234 0.0 6.4 0.00 1.19 0.03 90 1011.6
20260903150053 12 207 0.0 4.8 0.00 1.19 0.03 91 1011.6
20260903144605 12 0 0.0 6.4 0.00 1.19 0.03 91 1011.6
20260903143109 12 0 0.0 9.7 0.00 1.19 0.03 92 1011.5
20260903141604 12 202 0.0 4.8 0.00 1.19 0.03 92 1011.4
20260903140058 12 227 0.0 6.4 0.00 1.19 0.03 92 1011.2
20260903134558 12 232 0.0 4.8 0.00 1.19 0.03 92 1011.2
20260903133050 12 229 0.0 4.8 0.00 1.19 0.03 92 1011.2
20260903131600 12 0 0.0 4.8 0.00 1.19 0.03 93 1011.2
20260903130105 12 0 0.0 3.2 0.00 1.19 0.03 93 1011.2
20260903124606 12 0 0.0 1.6 0.00 1.19 0.03 93 1011.4
20260903123056 12 0 0.0 3.2 0.00 1.19 0.03 93 1011.3
20260903121556 12 0 0.0 3.2 0.00 1.19 0.03 93 1011.4
20260903120107 12 0 0.0 1.6 0.00 1.19 0.03 92 1011.6
20260903114606 12 0 0.0 3.2 0.00 1.19 0.03 92 1011.6
20260903113056 12 218 0.0 3.2 0.00 1.19 0.03 92 1011.4
20260903111603 12 0 0.0 1.6 0.00 1.19 0.03 91 1011.5
20260903110104 12 0 0.0 9.7 0.00 1.19 0.03 91 1011.4
20260903104559 12 0 0.0 6.4 0.00 1.19 0.03 91 1011.5
20260903103100 12 224 0.0 9.7 0.00 1.19 0.03 91 1011.6
20260903101605 12 0 0.0 4.8 0.00 1.19 0.03 92 1011.6
20260903100053 12 211 1.6 8.0 0.00 1.19 0.03 92 1011.7
20260903094559 12 0 0.0 3.2 0.00 1.19 0.03 93 1011.8
20260903093109 12 0 0.0 3.2 0.00 1.19 0.03 93 1011.9
20260903091553 12 212 0.0 8.0 0.00 1.19 0.03 93 1012.0
20260903090101 12 200 0.0 4.8 0.00 1.19 0.03 94 1012.0
20260903084558 12 0 0.0 6.4 0.00 1.19 0.03 94 1011.9
20260903083057 12 0 0.0 1.6 0.00 1.19 0.03 95 1012.0
20260903081604 12 220 0.0 4.8 0.03 1.19 0.03 95 1012.0
20260903080051 12 0 0.0 4.8 0.03 1.19 0.03 95 1012.1
20260903074556 12 0 0.0 3.2 0.03 1.19 0.03 95 1012.1
20260903073056 11 0 0.0 0.0 0.03 1.19 0.03 95 1012.0
20260903071556 11 239 0.0 0.0 0.00 1.17 0.00 95 1012.1
20260903070057 11 0 0.0 0.0 0.00 1.17 0.00 95 1012.0
20260903064555 12 0 0.0 1.6 0.00 1.17 1.17 95 1012.0
20260903063115 12 0 0.0 1.6 0.00 1.17 1.17 95 1012.0
20260903061554 12 0 0.0 1.6 0.00 1.17 1.17 95 1012.1
20260903060116 12 0 0.0 0.0 0.00 1.17 1.17 95 1011.9
20260903054556 12 0 0.0 0.0 0.00 1.17 1.17 95 1012.0
20260903053054 12 0 0.0 0.0 0.00 1.17 1.17 94 1012.0
20260903051605 12 0 0.0 0.0 0.00 1.17 1.17 94 1012.1
20260903050127 12 0 0.0 0.0 0.00 1.17 1.17 94 1012.0
20260903044555 12 0 0.0 0.0 0.00 1.17 1.17 94 1011.9
20260903043103 12 0 0.0 0.0 0.00 1.17 1.17 94 1012.0
20260903041559 12 0 0.0 0.0 0.00 1.17 1.17 94 1011.8
20260903040100 12 0 0.0 0.0 0.00 1.17 1.17 93 1011.7
20260903034552 12 0 0.0 0.0 0.00 1.17 1.17 92 1011.4
20260903033101 13 0 0.0 0.0 0.00 1.17 1.17 92 1011.3
20260903031555 13 0 0.0 0.0 0.00 1.17 1.17 92 1011.1
20260903030054 13 0 0.0 0.0 0.00 1.17 1.17 92 1011.0
20260903024552 14 0 0.0 3.2 0.00 1.17 1.17 91 1010.9
20260903023058 14 0 0.0 4.8 0.00 1.17 1.17 92 1010.8
20260903021555 15 0 0.0 0.0 0.00 1.17 1.17 91 1010.7
20260903020056 15 0 0.0 0.0 0.00 1.17 1.17 91 1010.6
20260903014556 15 0 0.0 0.0 0.10 1.17 1.17 91 1010.5
20260903013054 15 0 0.0 0.0 0.30 1.17 1.17 91 1010.4
20260903011607 15 0 0.0 3.2 0.36 1.17 1.17 90 1010.1
20260903010056 15 212 0.0 8.0 0.38 1.17 1.17 90 1010.2
20260903004553 15 0 0.0 4.8 0.25 1.04 1.04 91 1010.3
20260903003052 16 0 0.0 6.4 0.08 0.86 0.86 89 1009.6
20260903001558 16 67 1.6 8.0 0.03 0.81 0.81 86 1009.3
20260903000054 16 5 0.0 19.3 0.00 0.79 0.79 87 1009.2